STARLINK-3060, 49155

Orbit data source: Space-Track

STARLINK-3060, 49155 is a payload satellite owned by SpaceX/Seattle (US) in LEO that was launched on Tue, 14 Sep 2021 UTC via an FALCON 9 launch vehicle from the Air Force Western Test Range (AFWTR). Payload-class satellites include a variety of spacecraft equipped with specific instruments for various scientific and technological missions. These include communications satellites like Starlink; space stations such as the ISS; scientific satellites like the Hubble; Earth observation satellites from companies like Planet Labs, Umbra, and HawkEye 360; GPS; miniature CubeSats for education and research; and military/defense satellites.

Loading next visibility...
Identifier
49155, 2021-082AB
Orbit
LEO
Country
Flag of USUS
Related business
Manufacturer
SpaceX/Seattle
Mission
Operational Commercial Communications
Bus & Motor
STARLINK, Unknown motor
Mass
297 kg wet, ~275 kg dry
Launch date (UTC)
2021-09-14 (4 years ago)
Launch vehicle
FALCON 9
Launch site
Air Force Western Test Range (AFWTR)
Object type
Payload
Rocket body
Debris
Shape & HBR
Box + 1 Pan, 10.1 m
Radar Cross Section
13.562 m², Large (>1 m²)

Expand to show TLE details & history
Last TLE update: 16 hours ago

TLE from 16 hours ago
0 STARLINK-3060
1 49155U 21082AB  26035.25006413 -.00000464  00000-0 -31110-4 0  9990
2 49155  70.0021 338.7611 0002706 271.8651  88.2198 14.98329544243037
Epoch: 2026-02-04T06:00Z
TLE epoch observation values (Epoch: 2026-02-04T06:00:05.540Z)
Latitude
-0.00006°
Longitude
114.31865°
Altitude
574.423 km
Speed
7.574 km/s
True Right ascension
22h 35m 02s
True Declination
0° 00' 00"
Sunlit
Object was in daylight at epoch
Visualization orbit readout
Latitude
Unknown
Longitude
Unknown
Altitude
Unknown
Speed
Unknown
Apparent Right ascension
Unknown
Apparent Declination
Unknown
Sunlit
N/A
Visualization observer readout
Local Sidereal Time
23:58:59
Azimuth
Unknown
Elevation
Unknown
Doppler factor
Unknown
Orbital elements
Apogee altitude
571.885 km
Perigee altitude
568.125 km
Semi-major axis
6,948.142 km
Eccentricity
0.00027
Inclination
70.0021°
RAAN
338.7611°
Arg. of periapsis
271.8651°
True anomaly
88.25079°
Mean anomaly
88.2198°
Eccentric anomaly
88.2353°
Mean motion
3.74749 °/min
Orbital period
96.06 mins
BSTAR
-0.00003111
Loading maneuver chart data...
Computing Atmospheric mass density...
Loading historical data...
Loading historical data...
Loading historical data...
Loading historical data...
Loading historical data...
Loading historical data...
Loading historical data...

Documentation

Showing up to 5 results
|